www.pogodaiklimat.ru

Погода и климат >> Архив погоды >> Китай >> Guaizihu


ПОГОДА в Guaizihu

  • Прогноз погоды в Guaizihu
  • Монитор погоды в Guaizihu
  • Климат города

АРХИВ ПОГОДЫ в Guaizihu

Время (UTC), дата Ветер
(напр.,м/с)
 
Видим.   Явления Облачность Т
(С)
Тd
(С)
f
(%)
Тe
(С)
Тes
(С)
Комфортность P
(гПа)
Po
(гПа)
Тmin
(С)
Tmax
(С)
R
(мм)
R24
(мм)
S
(см)
18 18.05 Ю 2 25 км ?/? +9.3 +7.9 91 +8 +8 1012.4 903.7 +20.4 0.1
21 18.05 Ю 4 25 км ?/? +8.1 +7.2 94 +5 +5 1012.7 1013.0
00 19.05 Ю 3 20 км ясно +12.1 +9.7 85 +10 +13 1013.1 1031.4 0.1
03 19.05 Ю 2 21 км 8/8
[]
+17.9 +8.2 53 +18 +21 1011.7 1012.0
06 19.05 З 3 22 км 3/3
[]
+23.3 +5.7 32 +24 +35 комфорт 1008.4 1008.0 +7.8
09 19.05 С 3 21 км ясно +26.8 +0.5 18 +25 +32 комфорт 1005.4 1005.0
12 19.05 З 1 23 км 9/9
[]
+25.3 +0.7 20 +24 +24 комфорт 1004.5 1005.0
18 19.05 Ю 4 23 км ?/? +17.9 +4.5 41 +18 +18 1004.0 1004.0 +27.4
21 19.05 Ю 4 22 км ?/? +17.9 +0.1 30 +18 +18 1003.0 1003.0
00 20.05 Ю 1 22 км 10/10
[]
+15.9 +1.2 37 +17 +17 1005.3 1005.0
03 20.05 СВ 2 20 км 8/8
[]
+23.6 0.0 21 +22 +25 комфорт 1005.5 1006.0
06 20.05 С 3 20 км 9/9
[]
+27.5 +1.1 18 +25 +27 комфорт 1003.6 1004.0 +13.7
09 20.05 Ю 3 17 км 9/9 2000 м
[]
+28.8 +0.5 16 +26 +27 жарко 1002.2 1002.0
12 20.05 Ю 4 21 км 9/9 2000 м
[]
+26.7 +1.2 19 +25 +25 комфорт 1003.7 1004.0
18 20.05 З 8 700 м пыльная буря на расстоянии ?/? +16.1 -16.8 9 +15 +15 1009.8 1010.0 +29.2
21 20.05 З 12 2900 м пыльный позёмок н/о +13.5 -23.4 6 +11 +11 1013.1 1013.0
00 21.05 З 11 н/о пыльный позёмок 9/9
[]
+12.9 -22.1 7 +10 +10 1018.3 1018.0
03 21.05 З 12 1700 м пыльный позёмок 9/9
[]
+13.8 -25.3 5 +11 +11 1021.8 1022.0
06 21.05 З 12
{18}
3900 м пыльный позёмок 9/9
[]
+17.9 -22.3 5 +16 +16 1021.0 1021.0 +12.7
09 21.05 З 9
{20}
8000 м 9/9
[]
+18.4 -22.0 5 +17 +17 1021.1 1021.0
12 21.05 С 7
{20}
6000 м 9/9
[]
+16.7 -21.1 6 +16 +16 1022.2 1022.0
18 21.05 З 6 12 км ?/? +10.2 -21.3 9 +8 +8 1024.2 1024.0 +19.2
21 21.05 Ю 7 10 км ?/? +7.8 -19.9 12 +4 +4 1022.8 1023.0
00 22.05 З 7 16 км ясно +13.5 -20.2 8 +12 +13 1022.5 1023.0
03 22.05 З 6 19 км ясно +19.8 -18.8 6 +19 +25 1020.5 1021.0
06 22.05 З 7 19 км ясно +23.3 -21.1 4 +20 +25 1016.6 1017.0 +7.7
09 22.05 З 7 20 км 1/1 2000 м
[]
+24.9 -23.2 3 +21 +23 комфорт 1012.9 1013.0
12 22.05 З 6 18 км 1/1
[]
+23.7 -20.8 4 +21 +21 комфорт 1010.0 1010.0
18 22.05 Ю 7 21 км ?/? +16.0 -18.3 8 +15 +15 1008.1 1008.0 +25.2
21 22.05 Ю 8 21 км ?/? +15.2 -18.9 8 +14 +14 1006.9 1007.0
00 23.05 С 1 20 км ясно +18.4 -15.0 9 +19 +23 1007.1 1007.0
03 23.05 З 6 18 км ясно +26.5 -16.2 5 +23 +29 комфорт 1005.5 1006.0
06 23.05 З 7 18 км 3/3
[]
+29.6 -20.1 3 +25 +29 комфорт 1002.6 1020.5 +14.7
09 23.05 З 4 19 км 9/9
[]
+30.1 -19.8 3 +25 +26 комфорт 999.8 1000.0
12 23.05 З 3 22 км 9/9
[]
+28.2 -21.0 3 +24 +24 комфорт 998.4 894.5
18 23.05 Ю 7 21 км ?/? +20.9 -18.0 6 +19 +19 996.7 997.0 +30.7
21 23.05 Ю 6 21 км ?/? +20.4 -18.4 6 +19 +19 995.4 995.0
00 24.05 З 5 20 км 9/9
[]
+24.0 -18.0 5 +21 +21 комфорт 996.0 996.5
03 24.05 З 5 19 км 9/9
[]
+27.7 -18.0 4 +24 +24 комфорт 997.5 998.0
06 24.05 З 5 19 км 9/9
[]
+30.6 -19.4 3 +26 +27 жарко 996.1 996.0 +19.3
09 24.05 З 7 18 км 9/9
[]
+32.3 -18.3 3 +27 +28 жарко 994.1 994.0
12 24.05 С 2 19 км 9/9
[]
+29.2 -14.3 5 +25 +25 комфорт 995.6 996.0
18 24.05 З 10 1500 м пыльный позёмок ?/? +18.3 -2.1 25 +17 +17 1002.7 1003.0 +32.8
21 24.05 З 12 2600 м пыльный позёмок н/о +14.4 -5.4 25 +12 +12 1005.9 1006.0
00 25.05 З 12 6000 м пыльный позёмок 9/9
[]
+13.2 -5.9 26 +10 +10 1010.9 1010.0
03 25.05 З 13
{18}
1600 м пыльный позёмок 9/9
[]
+16.1 -5.6 22 +14 +14 1014.1 1014.0
06 25.05 З 16
{19}
1500 м пыльный позёмок 9/9
[]
+16.0 -6.9 20 +14 +14 1016.7 1017.0 +12.9
09 25.05 З 12
{19}
4200 м пыльный позёмок 10/10
[]
+13.2 +0.6 42 +10 +10 1018.2 1018.0
12 25.05 З 9
{19}
4900 м пыльный позёмок 9/9
[]
+16.0 -6.3 21 +14 +14 1019.4 1019.0

 

Местоположение метеостанции Guaizihu (Китай): широта 41.37 долгота 102.36 высота над уровнем моря 960 м.

В архиве по умолчанию представлена погода в Guaizihu за последнюю неделю. Архивные данные за месяц целиком и за предыдущие месяцы, начиная с января 2011 года, Вы можете получить, выбрав интересующий диапазон дат из раскрывающегося списка и нажав кнопку "Ввод!".


*Определитесь, кто Вы:
робот инопланетянин человек

Внимание! Время в таблицах - всемирное. Для получения местного времени необходимо прибавить поправку, которая в Guaizihu равна 8 ч.

Смотрите также архив погоды в соседних городах и на ближайших метеорологических станциях:

Погода в Ejin Qi (Китай) (126 км)
Погода в Bayan Mod (Китай) (192 км)
Погода в Shine Usa (Монголия) (246 км)
Погода в Dalanzadgad (Монголия) (298 км)
Погода в Minqin (Китай) (311 км)
Погода в Zhangye (Китай) (317 км)
Погода в Hails (Китай) (335 км)
Погода в Jartai (Китай) (337 км)
Погода в Bogd (Монголия) (365 км)
Погода в Jiuquan (Китай) (373 км)

Пояснения к столбцам:

Ветер - указаны скорость ветра в м/с - средняя за 10 мин, порывы в срок и между сроками (в фигурных скобках) и направление, откуда дует ветер: С - северный, СВ - северо-восточный, В - восточный, ЮВ - юго-восточный, Ю - южный, ЮЗ - юго-западный, З - западный, СЗ - северо-западный.
Видимость - горизонтальная дальность видимости в метрах или километрах. При видимости от 1 до 10 км при отсутствии осадков обычно наблюдается дымка, при ухудшении видимости до 1 км и менее - туман. В сухую погоду видимость может ухудшаться дымом, пылью или мглою.
Явления - указаны атмосферные явления, наблюдавшиеся в срок или в последний час перед сроком; фигурными скобками обозначены явления, наблюдавшиеся между сроками (за 1-3 часа до срока); квадратными скобками обозначены град или гололедные отложения с указанием их диаметра в мм.
Облачность - указаны через наклонную черту общая и нижняя облачность в баллах и высота нижней границы облаков в метрах; квадратными скобками обозначены формы облаков: Ci - перистые, Cs - перисто-слоистые, Cc - перисто-кучевые, Ac - высококучевые, As - высокослоистые, Sc - слоисто-кучевые, Ns - слоисто-дождевые, Cu - кучевые, Cb - кучево-дождевые. Подробнее классификацию облаков см. в Атласе облаков (PDF).
T - Температура воздуха - температура, измеренная на высоте 2 м над землей.
Td - Температура точки росы - температура, при понижении до которой содержащийся в воздухе водяной пар достигнет насыщения.
f - Относительная влажность воздуха - влажноcть воздуха, измеренная на высоте 2 м над землей.
Te - Эффективная температура - температура, которую ощущает одетый по сезону человек в тени. Характеристика душности погоды. При расчете учитывается влияние влажности воздуха и скорости ветра на теплоощущения человека.
Tes - Эффективная температура на солнце - температура, которую ощущает человек, с поправкой на солнечный нагрев. Характеристика знойности погоды. Зависит от высоты солнца над горизонтом, облачности и скорости ветра. Ночью, в пасмурную погоду, а также при ветре 12 м/с и более поправка равна нулю.
P - Атмосферное давление - приведенное к уровню моря атмосферное давление.
Po - Атмосферное давление - измеренное на уровне метеостанции атмосферное давление.
Tmin - Минимальная температура - минимум температуры воздуха на высоте 2 м над землей.
Tmax - Максимальная температура - максимум температуры воздуха на высоте 2 м над землей.
R - Количество осадков - Количество выпавших осадков за период времени, мм. При наведении курсора мыши на число - период времени, за который выпало указанное количество осадков.
R24 - Количество осадков - Количество выпавших осадков за 24 часа, мм.
S - Снежный покров - Высота снежного покрова, см. При наведении курсора мыши на число - состояние снежного покрова и степень покрытия местности в баллах.